Weather History for Michigan City, IN

Change the Weather History Date:

Monday, December 24, 2012

  Actual Average (KVPZ) Record (KVPZ)
Temperature  
Mean Temperature 30 °F 26 °F  
Max Temperature 33 °F 32 °F 43 °F (2006)
Min Temperature 26 °F 19 °F -5 °F (2004)
Degree Days  
Heating Degree Days 36 39  
Month to date heating degree days 863  
Since 1 July heating degree days 2121  
Cooling Degree Days 0 0  
Month to date cooling degree days 0  
Year to date cooling degree days 713  
Moisture  
Dew Point 25 °F    
Average Humidity 80    
Maximum Humidity 87    
Minimum Humidity 75    
Precipitation  
Precipitation 0.00 in 0.06 in 0.20 in (2009)
Month to date precipitation 1.73  
Year to date precipitation 37.06  
Sea Level Pressure  
Sea Level Pressure 29.91 in    
Wind  
Wind Speed 3 mph (NE)    
Max Wind Speed 9 mph    
Max Gust Speed -    
Visibility 10 miles    
Events      
T = Trace of Precipitation, MM = Missing Value Source: NWS Daily Summary

Daily Weather History Graph

Daily Weather History Graph

Search for Another Location

Airport:

Trip Planner

Search our weather history database for the weather conditions in past years. The results will help you decide how hot, cold, wet, or windy it might be!

Date:

Astronomy

Dec. 24, 2012 Rise Set
Actual Time 7:12 AM CST 4:21 PM CST
Civil Twilight 6:40 AM CST 4:53 PM CST
Nautical Twilight 6:05 AM CST 5:28 PM CST
Astronomical Twilight 5:32 AM CST 6:02 PM CST
Moon 1:49 PM CST (12/24) 3:49 AM CST (12/24)
Length of Visible Light 10h 12m
Length of Day
9h 09m
Waxing Gibbous, 88% of the Moon is Illuminated
Dec 24
Waxing Gibbous
Dec 28
Full
Jan 4
Last Quarter
Jan 11
New
Jan 18
First Quarter

Hourly Weather History & Observations

Time (CST) Temp. Windchill Dew Point Humidity Pressure Visibility Wind Dir Wind Speed Gust Speed Precip Events Conditions
12:15 AM 28.4 °F - 24.8 °F 86% 29.98 in 10.0 mi Calm Calm - N/A   Clear
12:35 AM 28.4 °F - 23.0 °F 80% 29.97 in 10.0 mi Calm Calm - N/A   Clear
12:55 AM 28.4 °F - 23.0 °F 80% 29.97 in 10.0 mi Calm Calm - N/A   Clear
1:15 AM 28.4 °F - 23.0 °F 80% 29.96 in 10.0 mi Calm Calm - N/A   Clear
1:35 AM 28.4 °F - 23.0 °F 80% 29.95 in 10.0 mi Calm Calm - N/A   Clear
1:55 AM 28.4 °F 24.6 °F 23.0 °F 80% 29.94 in 10.0 mi ENE 3.5 mph - N/A   Clear
2:15 AM 28.4 °F - 23.0 °F 80% 29.94 in 10.0 mi Calm Calm - N/A   Clear
2:35 AM 28.4 °F 24.6 °F 23.0 °F 80% 29.91 in 10.0 mi East 3.5 mph - N/A   Clear
2:55 AM 28.4 °F 24.6 °F 23.0 °F 80% 29.91 in 10.0 mi East 3.5 mph - N/A   Clear
3:15 AM 28.4 °F 23.3 °F 23.0 °F 80% 29.90 in 10.0 mi East 4.6 mph - N/A   Clear
3:35 AM 28.4 °F 24.6 °F 23.0 °F 80% 29.90 in 10.0 mi East 3.5 mph - N/A   Clear
3:55 AM 28.4 °F 23.3 °F 23.0 °F 80% 29.89 in 10.0 mi ESE 4.6 mph - N/A   Clear
4:15 AM 28.4 °F 23.3 °F 23.0 °F 80% 29.88 in 10.0 mi East 4.6 mph - N/A   Clear
4:35 AM 28.4 °F 24.6 °F 23.0 °F 80% 29.87 in 10.0 mi ENE 3.5 mph - N/A   Clear
4:55 AM 28.4 °F 22.2 °F 23.0 °F 80% 29.86 in 10.0 mi East 5.8 mph - N/A   Clear
5:15 AM 28.4 °F 23.3 °F 23.0 °F 80% 29.86 in 10.0 mi East 4.6 mph - N/A   Clear
5:35 AM 28.4 °F 24.6 °F 23.0 °F 80% 29.86 in 10.0 mi ENE 3.5 mph - N/A   Clear
5:55 AM 28.4 °F 24.6 °F 23.0 °F 80% 29.87 in 10.0 mi NE 3.5 mph - N/A   Clear
6:15 AM 28.4 °F 24.6 °F 23.0 °F 80% 29.86 in 10.0 mi East 3.5 mph - N/A   Clear
6:35 AM 28.4 °F 24.6 °F 23.0 °F 80% 29.87 in 10.0 mi East 3.5 mph - N/A   Clear
6:55 AM 28.4 °F - 23.0 °F 80% 29.87 in 10.0 mi Calm Calm - N/A   Clear
7:15 AM 28.4 °F - 23.0 °F 80% 29.88 in 10.0 mi Calm Calm - N/A   Clear
7:35 AM 26.6 °F 22.6 °F 23.0 °F 86% 29.87 in 10.0 mi NE 3.5 mph - N/A   Clear
7:55 AM 26.6 °F - 23.0 °F 86% 29.87 in 10.0 mi Calm Calm - N/A   Clear
8:15 AM 28.4 °F - 23.0 °F 80% 29.88 in 10.0 mi Calm Calm - N/A   Clear
8:35 AM 30.2 °F 24.3 °F 23.0 °F 75% 29.87 in 10.0 mi NE 5.8 mph - N/A   Clear
8:55 AM 30.2 °F 25.4 °F 23.0 °F 75% 29.87 in 10.0 mi ENE 4.6 mph - N/A   Scattered Clouds
9:15 AM 30.2 °F 25.4 °F 24.8 °F 80% 29.87 in 10.0 mi East 4.6 mph - N/A   Scattered Clouds
9:35 AM 30.2 °F 26.7 °F 24.8 °F 80% 29.85 in 10.0 mi East 3.5 mph - N/A   Scattered Clouds
9:55 AM 30.2 °F - 24.8 °F 80% 29.87 in 10.0 mi Calm Calm - N/A   Scattered Clouds
10:15 AM 32.0 °F 28.7 °F 26.6 °F 80% 29.86 in 10.0 mi ENE 3.5 mph - N/A   Overcast
10:35 AM 32.0 °F 27.5 °F 26.6 °F 80% 29.86 in 10.0 mi East 4.6 mph - N/A   Overcast
10:55 AM 32.0 °F - 26.6 °F 80% 29.86 in 10.0 mi Calm Calm - N/A   Overcast
11:15 AM 32.0 °F - 26.6 °F 80% 29.85 in 10.0 mi Calm Calm - N/A   Overcast
11:35 AM 32.0 °F - 26.6 °F 80% 29.83 in 10.0 mi Calm Calm - N/A   Overcast
11:55 AM 32.0 °F - 26.6 °F 80% 29.83 in 10.0 mi Calm Calm - N/A   Overcast
12:15 PM 32.0 °F - 26.6 °F 80% 29.83 in 10.0 mi Calm Calm - N/A   Overcast
12:35 PM 32.0 °F 27.5 °F 26.6 °F 80% 29.83 in 10.0 mi NW 4.6 mph - N/A   Overcast
12:55 PM 32.0 °F 27.5 °F 26.6 °F 80% 29.83 in 10.0 mi NW 4.6 mph - N/A   Overcast
1:15 PM 32.0 °F 25.6 °F 26.6 °F 80% 29.83 in 10.0 mi NNW 6.9 mph - N/A   Overcast
1:35 PM 32.0 °F 27.5 °F 26.6 °F 80% 29.83 in 10.0 mi North 4.6 mph - N/A   Overcast
1:55 PM 32.0 °F 24.8 °F 28.4 °F 87% 29.83 in 10.0 mi North 8.1 mph - N/A   Overcast
2:15 PM 32.0 °F 24.2 °F 26.6 °F 80% 29.83 in 10.0 mi North 9.2 mph - N/A   Overcast
2:35 PM 32.0 °F 25.6 °F 26.6 °F 80% 29.84 in 10.0 mi North 6.9 mph - N/A   Overcast
2:55 PM 32.0 °F 25.6 °F 28.4 °F 87% 29.84 in 10.0 mi North 6.9 mph - N/A   Overcast
3:15 PM 32.0 °F 27.5 °F 28.4 °F 87% 29.85 in 10.0 mi North 4.6 mph - N/A   Overcast
3:35 PM 32.0 °F 25.6 °F 28.4 °F 87% 29.86 in 10.0 mi North 6.9 mph - N/A   Overcast
3:55 PM 32.0 °F - 28.4 °F 87% 29.88 in 10.0 mi Calm Calm - N/A   Overcast
4:15 PM 32.0 °F 28.7 °F 28.4 °F 87% 29.88 in 10.0 mi NNE 3.5 mph - N/A   Overcast
4:35 PM 32.0 °F - 28.4 °F 87% 29.89 in 10.0 mi Calm Calm - N/A   Overcast
4:55 PM 32.0 °F 25.6 °F 28.4 °F 87% 29.90 in 10.0 mi NNE 6.9 mph - N/A   Overcast
5:15 PM 33.8 °F 27.0 °F 28.4 °F 81% 29.91 in 10.0 mi North 8.1 mph - N/A   Overcast
5:35 PM 33.8 °F 29.6 °F 28.4 °F 81% 29.92 in 10.0 mi North 4.6 mph - N/A   Overcast
5:55 PM 33.8 °F 28.6 °F 26.6 °F 75% 29.93 in 10.0 mi North 5.8 mph - N/A   Overcast
6:15 PM 33.8 °F 27.7 °F 26.6 °F 75% 29.94 in 10.0 mi North 6.9 mph - N/A   Overcast
6:35 PM 33.8 °F 29.6 °F 26.6 °F 75% 29.95 in 10.0 mi NNE 4.6 mph - N/A   Overcast
6:55 PM 32.0 °F 28.7 °F 26.6 °F 80% 29.96 in 10.0 mi ENE 3.5 mph - N/A   Overcast
7:15 PM 32.0 °F 28.7 °F 26.6 °F 80% 29.96 in 10.0 mi ENE 3.5 mph - N/A   Overcast
7:35 PM 32.0 °F 28.7 °F 26.6 °F 80% 29.97 in 10.0 mi NE 3.5 mph - N/A   Overcast
7:55 PM 32.0 °F 27.5 °F 26.6 °F 80% 29.97 in 10.0 mi NE 4.6 mph - N/A   Overcast
8:15 PM 32.0 °F 26.4 °F 26.6 °F 80% 29.98 in 10.0 mi NE 5.8 mph - N/A   Overcast
8:35 PM 32.0 °F 28.7 °F 26.6 °F 80% 29.99 in 10.0 mi ENE 3.5 mph - N/A   Overcast
8:55 PM 32.0 °F 28.7 °F 26.6 °F 80% 30.00 in 10.0 mi ENE 3.5 mph - N/A   Overcast
9:15 PM 32.0 °F - 26.6 °F 80% 30.01 in 10.0 mi Calm Calm - N/A   Overcast
9:35 PM 32.0 °F - 24.8 °F 75% 30.02 in 10.0 mi Calm Calm - N/A   Overcast
9:55 PM 32.0 °F - 24.8 °F 75% 30.02 in 10.0 mi Calm Calm - N/A   Overcast
10:15 PM 32.0 °F 28.7 °F 24.8 °F 75% 30.03 in 10.0 mi ENE 3.5 mph - N/A   Overcast
10:35 PM 32.0 °F - 24.8 °F 75% 30.04 in 10.0 mi Calm Calm - N/A   Overcast
10:55 PM 32.0 °F 28.7 °F 24.8 °F 75% 30.05 in 10.0 mi East 3.5 mph - N/A   Overcast
11:15 PM 32.0 °F 27.5 °F 24.8 °F 75% 30.05 in 10.0 mi NE 4.6 mph - N/A   Overcast
11:35 PM 32.0 °F 28.7 °F 24.8 °F 75% 30.06 in 10.0 mi ENE 3.5 mph - N/A   Overcast
11:55 PM 30.2 °F 26.7 °F 24.8 °F 80% 30.06 in 10.0 mi ENE 3.5 mph - N/A   Overcast